Regional Weather Roundup
Issued by NWS Sterling, VA

Home | Current Version | Previous Version | Text Only | Print | Product List | Glossary Off
Versions: 1 2 3 4 5 6 7 8 9 10 11 12 13 14 15 16 17 18 19 20 21 22 23 24 25 26 27

000
ASUS41 KLWX 200510
RWRLWX

REGIONAL WEATHER ROUNDUP
NATIONAL WEATHER SERVICE BALTIMORE MD/WASHINGTON DC
100 AM EDT SUN APR 20 2014

Note: "FAIR" indicates few or no clouds below 12,000 feet
with no significant weather and/or obstructions to visibility.
 TC=TEMPERATURE CELSIUS

 * =Non NWS site. Station does not report precipitation (e.g. rain,
    snow, etc.), thunder, or fog.

DCZ001-MDZ009-015-VAZ040>042-051-053>054-200600-
WASHINGTON METRO

CITY           SKY/WX    TMP DP  RH WIND       PRES   REMARKS
WASHINGTON NAT CLOUDY    56  36  47 NE5       30.33R
DULLES         CLOUDY    46  31  55 N5        30.31S
ANDREWS AFB    CLOUDY    49  37  63 N5        30.31S
FT BELVOIR     CLOUDY    49  36  60 CALM      30.32S
QUANTICO       CLOUDY    56  36  47 E5        30.33R
COLLEGE PARK*  CLOUDY    48  37  66 CALM      30.32S
LEESBURG*      CLOUDY    54  32  43 NE6       30.33S
MANASSAS*      CLOUDY    45  37  76 CALM      30.32R
GAITHERSBURG*  MOCLDY    52  25  35 NE6       30.35R

$$

MDZ006>007-011-014-200600-
BALTIMORE METRO

CITY           SKY/WX    TMP DP  RH WIND       PRES   REMARKS
BWI AIRPORT    CLOUDY    50  37  61 CALM      30.32R
MD SCIENCE CTR   N/A     54  38  54 MISG      30.34R
MARTIN STATE   CLOUDY    46  41  81 CALM      30.35R
ANNAPOLIS      CLOUDY    51  43  74 NW3       30.32R
FORT MEADE*    CLOUDY    43  34  70 CALM      30.35S

$$

MDZ012-015-019>023-200600-
MARYLAND EASTERN SHORE

CITY           SKY/WX    TMP DP  RH WIND       PRES   REMARKS
OCEAN CITY     CLOUDY    48  41  76 N6        30.29S
SALISBURY      CLOUDY    47  38  71 CALM      30.30R
BAY BRIDGE AP* CLOUDY    50  36  57 N3        30.33R
CAMBRIDGE*     CLOUDY    46  36  66 CALM      30.30S
EASTON*        CLOUDY    48  39  69 CALM      30.34F

$$

MDZ017>025-200600-
SOUTHERN MARYLAND

CITY           SKY/WX    TMP DP  RH WIND       PRES   REMARKS
PATUXENT RIVER CLOUDY    47  36  65 CALM      30.30S
ST INIGOES     CLOUDY    47  38  71 CALM      30.29S
LEONARDTOWN*   CLOUDY    46  36  66 CALM      30.32R

$$

MDZ003>005-200600-
NORTH CENTRAL MARYLAND

CITY           SKY/WX    TMP DP  RH WIND       PRES   REMARKS
FREDERICK*     MOCLDY    45  36  70 N7        30.36S
HAGERSTOWN APT MOCLDY    50  25  37 CALM      30.34R
WESTMINSTER*   MOCLDY    50  23  34 NE5       30.34R

$$

MDZ501>502-200600-
WESTERN MARYLAND

CITY           SKY/WX    TMP DP  RH WIND       PRES   REMARKS
OAKLAND*       MOCLDY    45  10  24 E12       30.31S
CUMBERLAND*    MOCLDY    52  30  43 CALM      30.36S

$$

VAZ025>031-200600-
SHENANDOAH VALLEY

CITY           SKY/WX    TMP DP  RH WIND       PRES   REMARKS
WINCHESTER*    MOCLDY    46  30  53 N3        30.32S
STAUNTON*      CLOUDY    45  36  70 CALM      30.31S

$$

WVZ021-048>050-054>055-200600-
EASTERN WEST VIRGINIA PANHANDLE

CITY           SKY/WX    TMP DP  RH WIND       PRES   REMARKS
MARTINSBURG    MOCLDY    50  27  40 N7        30.34R
PETERSBURG*    MOCLDY    47  43  85 CALM      30.33R

$$

VAZ036>039-050-200600-
CENTRAL FOOTHILLS

CITY           SKY/WX    TMP DP  RH WIND       PRES   REMARKS
CHARLOTTESVILL CLOUDY    52  35  52 N3        30.29S
CULPEPER*      CLOUDY    48  30  49 CALM      30.31S

$$

VAZ055>057-200600-
NORTH AND CENTRAL PIEDMONT

CITY           SKY/WX    TMP DP  RH WIND       PRES   REMARKS
FREDERICKSBRG* CLOUDY    52  43  71 CALM      30.31R
STAFFORD*      CLOUDY    48  41  77 CALM      30.35R

$$

NCZ024-NYZ072-PAZ021-071-VAZ022-071-200600-
OTHER REGIONAL OBSERVATIONS

CITY           SKY/WX    TMP DP  RH WIND       PRES   REMARKS
NEW YORK CITY  PTCLDY    53  25  33 NE10G17   30.39R
PHILADELPHIA   MOCLDY    51  36  56 CALM      30.35R
PITTSBURGH     MOCLDY    50  31  48 N3        30.29R
ROANOKE        CLOUDY    50  42  74 CALM      30.29R
RICHMOND       CLOUDY    51  33  50 E9        30.28S
RALEIGH        CLOUDY    52  40  63 NE6       30.21F

$$

ANZ530>537-200600-
MARINE OBSERVATIONS

STATION/POSITION TIME  TEMP    WIND        PRES
                       AIR SEA DIR/SP/G
                 (UTC) (F)     (DEG/KT/KT) (MB)
THOMAS PT LIGHT  0500   53 53  360/  6/  7 1027.1S
BALT KEY BRIDGE  0500   54      10/  3/  4 1027.3R
COVE POINT       0500   52      70/  6/  7 1025.8R
LEWISETTA        0500   53 54   60/  4/  5 1025.6R
SOLOMONS ISLAND  0500      54                N/A
PINEY POINT      0500           50/  3/  3   N/A

$$




USA.gov is the U.S. government's official web portal to all federal, state and local government web resources and services.